Location: *
(42.3442°N, 9.2072°E)
Time: 00:52:42
(UTC+00:00)

Terra - Pass Details

Date: 09 April 2020
Orbit: 701 x 703 km, 98.2° (Epoch: 05 June)

Event Time Altitude Azimuth Distance (km) Brightness Sun altitude
Exits shadow 22:10:15 20° 313° (NW) 1,604 4.1 -36.9°
Drops below altitude 10° 22:12:01 10° 327° (NNW) 2,178 5.1 -37.0°
Sets 22:14:30 0° 338° (NNW) 3,101 6.1 -37.2°
